Theta_e
362 360 359 356 357 355 350 342 321 328 326 315 317 322 320 332 332 325 327 331 325 333 335 337 338 338 331 329 332 333 334 326 331 314 312 334 348 350 353 353 354 354 354 355 356 360 359 361 363 364 364 363 364 365 365 365 366 366 366 366 366 367 367 367 367 367 367 366 367 367 367 367 367 367 367 366 366 365 364 364 363 363 363 363 363 363 363 363 363 362 362 362 362 362 360 361 361
360 358 357 356 353 351 336 343 322 318 320 317 317 324 325 328 326 324 326 326 329 331 336 335 338 339 339 337 337 335 332 336 337 336 340 347 350 350 354 354 355 354 355 356 357 357 359 359 363 364 363 363 364 365 365 366 366 366 366 366 366 367 367 367 367 367 366 366 366 367 367 367 367 367 367 367 366 366 365 364 364 363 363 363 363 363 363 363 362 362 362 361 361 361 361 361 361
358 357 355 354 353 348 343 339 315 313 310 307 315 321 328 324 323 325 328 329 332 334 337 336 339 337 336 336 330 331 324 340 340 341 341 348 343 347 354 355 356 356 356 357 358 357 358 359 363 364 363 364 364 365 366 366 367 366 366 366 367 366 367 367 367 366 366 366 366 367 367 367 367 367 367 367 366 365 365 364 364 363 363 363 363 363 363 363 362 362 362 362 362 362 362 361 360
358 354 350 350 337 346 330 325 319 316 310 312 314 324 322 323 326 328 331 332 333 336 335 332 330 338 334 328 331 337 334 334 342 341 339 344 345 351 354 356 358 357 357 358 359 358 359 362 364 364 364 365 365 366 366 367 367 365 365 366 366 367 367 367 367 367 367 366 366 367 367 367 367 366 366 366 366 365 365 364 364 363 363 363 363 362 362 362 362 362 362 362 362 362 361 361 361
350 350 350 347 335 326 325 321 319 319 312 313 311 322 324 325 326 328 329 332 334 334 334 334 333 338 338 334 335 329 332 341 343 346 344 348 353 353 354 356 356 356 356 358 359 359 359 364 364 364 364 366 366 366 367 367 366 365 365 366 366 367 367 367 367 367 366 366 366 366 367 367 367 367 366 366 367 365 365 364 363 363 364 363 363 363 362 362 361 362 362 362 362 362 361 361 361
347 347 350 348 332 341 332 318 316 315 319 322 317 321 326 327 326 328 330 333 335 336 336 334 331 332 332 335 339 335 341 332 343 345 347 348 353 355 356 357 356 355 356 357 358 358 360 364 364 365 365 366 366 366 366 365 366 365 365 366 366 367 367 367 367 366 366 366 366 366 366 366 366 366 366 366 366 365 364 364 364 363 363 363 363 362 362 362 362 362 362 363 362 362 361 361 361
343 347 346 345 341 342 321 316 316 319 322 325 321 322 326 326 329 330 330 331 335 336 339 334 337 335 331 337 340 343 347 347 344 345 350 352 354 355 356 355 355 354 356 357 358 359 360 364 365 365 365 365 366 366 366 366 366 366 366 365 366 367 367 367 366 366 366 366 366 366 366 366 366 366 365 366 365 364 364 363 364 363 363 363 363 363 362 362 362 362 362 362 362 362 361 362 361
356 342 340 332 326 328 320 319 320 320 322 327 326 324 326 328 330 331 330 330 329 330 335 336 336 332 330 342 331 344 348 350 349 351 353 354 355 355 355 355 354 354 356 357 358 359 364 364 364 365 363 365 366 366 366 366 366 366 365 365 366 366 366 366 366 365 366 366 366 365 365 365 366 366 365 364 364 363 363 363 363 363 363 363 363 362 362 362 362 362 362 362 362 362 362 362 361
348 344 345 332 319 325 318 319 320 327 324 325 325 330 333 329 330 329 328 330 332 334 334 335 336 330 332 335 335 343 345 350 352 354 354 354 353 354 355 354 354 354 356 357 358 360 361 364 365 365 365 366 366 366 366 367 367 366 365 365 366 366 366 366 366 365 365 366 366 365 365 365 365 365 364 363 363 363 363 364 363 363 363 363 362 363 362 362 362 362 362 363 362 362 362 362 361
342 343 327 326 321 314 314 313 315 318 323 326 326 328 330 328 328 330 329 329 331 333 334 337 337 332 336 332 335 340 343 350 352 351 353 354 354 355 354 355 355 355 354 356 358 360 360 365 365 365 365 366 366 366 366 366 367 366 365 366 366 366 366 366 366 366 365 366 365 365 365 365 366 365 364 363 364 363 363 364 363 363 363 362 362 363 363 362 362 362 363 363 363 362 362 362 362
333 343 339 324 315 311 310 312 313 315 321 326 328 330 329 330 330 329 331 331 335 333 335 338 333 333 335 334 337 347 349 350 349 347 352 353 354 354 354 356 356 355 354 356 359 360 360 361 365 365 366 366 366 366 366 367 367 366 365 366 366 366 366 366 366 366 365 365 365 365 365 365 365 365 364 363 363 364 364 364 363 364 363 363 362 362 362 362 362 362 362 362 363 362 363 363 361
330 328 331 318 313 312 312 312 313 315 322 325 324 328 329 329 332 330 331 330 332 333 333 337 331 338 332 333 335 344 348 348 349 351 352 354 354 355 355 355 356 355 356 357 360 360 361 362 363 366 367 367 366 366 366 367 367 367 366 365 365 366 365 365 366 366 365 365 365 365 365 365 365 365 364 363 364 364 363 363 363 363 364 363 362 362 362 362 362 362 361 361 361 362 362 362 362
331 328 322 317 313 313 315 313 312 316 318 321 323 327 331 329 330 332 332 333 333 332 332 338 339 338 329 331 340 345 345 349 351 352 353 353 354 355 355 355 355 356 357 359 359 359 360 361 362 363 365 367 367 366 366 367 367 367 366 366 366 366 365 366 366 366 365 365 365 365 365 365 365 364 364 363 364 363 363 363 364 364 364 364 363 363 362 362 362 362 363 362 363 362 362 363 363
332 328 322 314 317 314 312 311 313 310 316 322 325 328 330 328 331 334 334 330 332 331 337 340 339 338 332 335 337 339 343 350 351 353 354 354 354 354 354 354 355 356 357 358 358 359 360 360 362 361 363 363 363 364 366 367 367 367 366 367 366 366 366 366 366 366 365 365 365 365 365 365 365 364 364 364 364 363 363 363 364 363 364 364 364 364 362 362 362 363 363 363 363 363 363 364 363
333 334 323 318 314 312 314 310 311 311 308 321 326 327 328 330 333 333 332 330 331 339 341 344 341 335 327 331 331 337 343 348 352 353 353 353 355 354 353 353 353 355 356 358 359 359 359 360 360 361 362 362 361 361 362 364 368 367 366 367 366 366 366 366 366 366 366 365 365 366 365 366 365 365 365 364 364 364 364 364 364 363 363 364 362 362 362 361 361 361 362 363 363 364 364 364 365
338 330 322 316 311 311 312 314 314 312 308 320 325 329 327 329 334 330 332 336 335 340 341 334 343 334 336 335 336 342 346 349 351 352 351 352 353 353 353 352 352 354 355 357 357 358 359 359 360 360 361 361 361 361 361 363 366 367 367 367 366 366 366 366 366 366 365 365 365 365 365 365 365 363 365 362 364 365 365 363 363 363 364 363 362 361 360 361 362 362 363 363 364 364 362 362 362
335 331 316 313 309 311 312 313 313 309 315 317 325 326 324 324 331 335 340 340 334 334 337 339 338 343 338 339 343 346 348 350 351 350 350 349 349 349 350 351 351 352 354 355 356 357 359 359 359 360 360 361 361 361 361 362 364 367 366 367 366 366 366 366 366 366 365 364 365 365 364 364 361 362 361 361 364 364 364 364 363 363 363 362 362 362 363 363 364 364 364 364 364 365 363 365 367
331 322 316 311 313 315 318 317 317 319 317 319 321 325 324 322 329 334 338 335 335 336 335 338 341 341 343 345 347 348 349 348 348 347 347 346 347 346 347 349 349 349 351 353 355 357 357 358 359 359 360 360 360 361 362 362 363 365 361 362 362 363 365 365 364 362 366 361 365 363 360 364 361 359 359 366 363 365 364 365 365 364 364 364 363 364 363 364 365 365 365 365 365 365 365 362 363
326 319 314 313 316 318 323 321 320 319 317 322 320 327 326 325 330 333 329 329 331 331 333 337 337 340 343 345 346 346 347 347 346 346 345 345 345 345 345 347 348 349 350 352 353 355 356 358 359 359 359 360 360 361 362 361 361 361 360 361 362 365 365 363 362 365 360 360 361 360 364 362 359 360 361 365 366 368 366 365 365 364 363 364 364 364 363 365 366 366 366 366 367 367 364 359 358
326 320 314 315 320 323 323 322 320 322 323 323 321 326 327 326 329 333 329 328 330 328 329 333 334 335 339 342 345 345 346 346 346 345 345 345 346 346 346 346 347 348 349 351 352 355 357 357 358 359 359 359 359 359 361 360 360 359 359 360 360 360 362 363 360 361 360 360 361 360 360 360 361 359 369 367 366 364 364 366 364 363 363 364 364 366 367 366 367 367 367 367 370 370 360 359 359
322 321 316 318 322 320 323 323 322 322 323 323 323 322 325 326 327 329 329 326 327 329 334 334 334 336 338 342 343 344 344 344 344 345 345 345 346 348 347 348 348 349 351 352 353 354 356 356 357 358 359 358 358 359 359 359 359 359 358 359 359 359 360 360 360 360 360 360 359 360 360 361 360 359 362 361 359 360 359 360 362 360 361 358 366 358 360 360 359 355 357 363 361 360 359 358 357
323 320 323 323 321 319 323 324 324 323 324 323 322 319 323 324 325 327 328 322 322 329 335 338 338 339 339 340 342 343 343 343 344 344 345 345 345 346 348 349 350 351 352 350 352 354 355 356 357 357 357 357 357 358 358 360 360 358 358 358 358 359 359 359 359 359 359 360 359 360 360 360 359 357 358 358 359 357 358 358 360 360 359 359 363 357 357 356 353 355 355 354 357 359 356 353 353
316 317 321 323 324 320 321 323 325 325 323 322 321 322 321 319 318 328 327 324 328 337 339 340 341 341 342 343 343 342 342 343 344 344 345 345 346 347 348 349 349 349 351 350 353 354 355 355 357 357 356 356 357 358 358 360 359 358 358 358 357 358 358 358 358 358 359 360 359 360 360 358 358 357 356 357 357 359 358 357 358 359 358 357 363 357 355 356 354 354 353 354 354 354 354 352 351
320 315 318 320 324 321 322 322 324 325 323 322 327 321 318 317 316 325 324 327 334 339 341 341 342 343 343 341 342 342 343 343 344 345 346 347 347 347 348 348 350 351 351 351 352 353 355 355 356 356 356 356 356 357 358 359 358 358 358 362 360 360 359 358 358 359 359 359 360 359 363 358 357 357 356 356 356 357 357 358 357 358 358 357 361 356 355 355 355 355 353 353 354 353 354 354 353
314 314 316 321 323 323 323 322 325 326 325 325 324 317 317 317 317 321 323 332 337 339 341 341 341 342 342 341 341 342 342 343 344 345 347 348 349 349 350 350 351 351 349 351 352 353 354 356 356 356 356 356 356 357 358 358 358 358 358 358 358 362 359 358 358 359 358 359 360 360 363 357 356 357 355 356 356 355 354 356 357 356 356 357 358 355 355 353 352 354 354 353 352 352 351 350 351
316 315 316 319 322 323 324 322 324 325 326 325 322 318 319 318 323 321 330 334 338 340 339 340 340 339 339 340 341 342 342 343 344 344 345 347 348 348 348 349 351 350 350 351 352 352 354 356 356 356 356 357 356 357 357 356 356 356 357 357 358 361 358 358 359 358 358 358 359 359 361 357 356 356 355 356 355 354 353 355 357 354 353 353 356 356 357 354 353 354 352 352 351 350 350 352 355
316 314 314 316 320 323 325 321 323 325 325 324 321 318 317 324 327 320 332 336 338 338 337 339 338 338 339 339 340 341 342 342 343 345 346 347 347 347 347 349 350 350 352 351 353 353 355 355 356 356 357 358 357 356 356 356 355 356 357 357 357 358 358 358 358 357 357 358 359 359 360 358 355 353 353 355 353 354 355 355 354 353 353 354 355 355 358 355 354 353 352 350 349 348 350 352 353
313 312 312 311 316 322 323 322 323 324 322 324 322 319 319 320 327 324 331 336 338 336 336 337 337 337 338 339 339 341 342 343 344 344 343 345 346 347 347 348 349 350 351 351 353 354 355 355 356 357 356 357 357 356 357 355 353 355 357 357 356 358 359 357 357 356 359 357 359 358 359 356 357 350 351 356 355 354 356 355 354 353 353 354 357 355 357 356 354 355 355 352 351 349 351 352 351
311 311 307 309 310 315 321 319 323 325 321 324 322 318 316 317 322 329 333 336 336 335 335 335 336 336 337 338 339 340 341 342 343 342 343 346 348 349 347 350 350 350 352 353 354 355 355 356 356 357 357 357 357 355 355 355 354 355 356 356 356 358 358 357 355 355 356 356 358 358 358 357 356 351 353 357 362 356 356 354 353 355 354 355 356 356 357 355 355 355 354 354 351 350 348 349 350
310 309 307 307 305 304 313 322 321 324 323 324 322 306 310 316 326 330 334 335 335 334 333 334 335 336 336 337 338 339 341 341 341 342 344 345 347 348 348 350 352 351 351 353 354 354 356 357 358 358 357 356 357 355 355 354 354 355 356 355 357 357 356 356 355 355 356 356 357 357 357 358 357 354 357 356 358 357 356 354 352 355 354 356 356 357 355 355 355 351 351 350 356 352 347 346 340
303 306 308 301 300 300 309 317 319 320 325 323 323 307 309 317 327 331 334 335 333 331 332 333 334 334 335 335 336 337 339 340 340 341 342 343 347 348 349 351 352 352 352 353 353 354 356 356 358 357 359 356 358 353 355 354 354 355 355 354 355 355 354 355 355 354 354 355 356 356 357 359 358 358 359 357 358 357 355 354 353 355 356 356 354 355 353 353 352 351 351 347 344 340 340 340 337
304 301 296 299 299 301 306 316 317 316 322 324 319 309 311 317 326 331 334 334 333 330 331 332 333 333 334 334 335 336 337 339 339 340 341 341 345 346 349 350 352 351 351 352 353 355 354 355 357 356 357 356 356 354 354 354 355 354 355 359 355 355 354 354 354 354 355 356 357 357 357 360 360 360 359 359 357 355 355 354 355 356 356 355 354 353 354 351 349 351 350 348 337 335 335 335 338
302 299 297 298 299 301 304 308 316 321 320 321 319 309 313 315 326 331 333 333 332 330 330 331 332 332 333 333 334 335 335 335 337 338 339 339 343 346 348 350 350 351 351 352 352 353 353 353 358 355 356 355 356 354 354 354 355 354 355 356 356 356 354 353 352 355 355 356 357 358 359 361 360 361 361 360 357 355 354 355 355 356 357 354 353 352 352 353 349 353 344 345 335 331 335 338 340
296 300 296 299 299 301 300 306 314 320 319 315 315 314 314 316 324 328 331 332 330 329 329 330 331 331 332 333 334 334 334 333 334 335 337 338 341 344 347 352 350 351 351 352 352 352 352 352 355 355 356 356 356 354 354 354 354 355 354 355 358 356 355 354 352 355 355 357 358 358 360 361 361 361 361 361 357 357 355 356 355 356 356 353 351 350 350 352 349 346 338 339 335 332 336 338 338
295 297 297 299 301 302 302 303 309 318 318 316 312 315 315 315 322 325 329 331 329 328 328 330 330 330 330 332 333 333 333 332 333 335 336 338 340 343 346 348 349 350 350 351 352 352 352 352 354 356 356 355 356 355 355 354 354 355 355 355 355 355 355 354 353 353 354 357 359 359 361 362 363 359 361 361 359 359 356 356 355 355 355 351 350 348 349 349 347 338 337 335 340 334 337 338 339
300 300 299 299 298 299 299 306 310 317 314 314 312 313 314 314 318 323 327 329 327 327 329 329 329 329 329 331 332 332 332 332 334 335 336 338 338 341 344 347 347 349 349 350 351 350 350 351 353 354 355 355 355 355 355 353 352 353 352 352 353 354 353 354 354 352 354 357 360 361 361 362 362 360 361 361 359 358 355 355 355 355 353 351 348 344 342 340 336 337 335 335 334 341 345 340 340
303 302 301 301 301 302 305 306 310 318 315 313 312 315 316 314 315 320 325 326 325 325 326 326 328 327 328 330 331 331 331 331 334 334 335 336 337 340 343 345 346 348 348 349 349 349 349 350 351 352 354 354 354 353 354 353 350 350 352 352 351 353 352 353 354 352 352 357 361 361 361 362 362 361 361 361 359 362 356 355 354 354 353 351 348 344 339 337 336 336 339 344 337 336 338 340 341
303 302 301 300 301 300 305 305 311 316 314 311 313 314 315 315 316 318 323 323 322 323 324 324 326 326 327 329 330 330 331 333 333 332 333 335 336 338 341 344 346 345 346 348 348 348 348 350 350 352 354 353 353 353 355 354 353 351 351 351 351 352 352 352 352 352 351 356 361 361 361 361 362 361 361 361 360 359 355 355 354 353 352 351 348 347 339 346 343 338 337 335 339 336 336 342 342
302 301 301 300 301 303 306 307 311 315 315 311 313 313 314 315 317 319 320 322 322 324 324 324 325 325 326 329 329 330 330 330 331 332 332 334 335 337 339 342 344 346 345 347 348 348 348 349 350 352 354 354 353 353 355 354 354 354 352 351 353 353 354 355 354 355 356 357 361 361 362 361 361 361 361 361 360 359 355 355 354 352 352 352 347 344 341 341 335 336 333 333 334 336 341 345 339
301 300 298 297 302 300 298 305 309 313 313 310 313 313 313 316 317 319 320 321 321 324 324 324 326 325 325 327 329 329 329 329 329 330 331 333 334 335 337 340 343 344 345 346 347 347 348 350 350 352 353 354 354 354 356 356 355 355 354 354 353 355 353 356 356 356 355 359 359 361 361 361 361 361 362 361 361 359 355 354 354 351 351 351 344 340 338 339 335 333 334 339 335 330 329 336 343
302 302 300 300 301 302 302 302 306 312 314 316 313 312 310 311 312 315 319 322 321 322 323 323 325 326 327 329 329 330 329 329 329 330 331 332 333 334 336 339 342 343 344 345 346 347 349 348 350 352 353 354 355 356 356 355 356 354 354 354 354 353 355 354 352 353 353 358 359 359 360 361 361 362 363 363 360 358 357 354 352 351 349 348 343 338 340 343 338 334 336 339 332 329 331 335 339
298 302 303 303 303 302 303 304 303 306 306 312 312 301 302 309 312 314 317 319 318 320 320 320 322 324 325 325 327 329 331 331 330 330 331 332 333 334 336 338 340 342 343 346 347 347 349 348 350 352 352 355 355 355 356 355 355 352 351 350 348 348 348 349 349 350 350 355 358 360 361 362 362 362 363 363 360 358 357 356 352 350 348 347 345 341 343 343 338 334 335 334 333 332 331 332 332
296 299 304 304 304 304 303 302 301 298 299 308 314 303 298 306 309 313 316 317 317 319 319 320 321 323 324 324 326 328 329 330 331 332 332 331 333 334 335 337 339 341 343 346 347 347 348 349 349 352 352 354 355 356 356 356 354 353 352 351 350 348 348 350 352 353 352 356 359 359 360 361 361 361 362 363 359 358 356 356 352 349 348 345 349 344 343 341 339 333 338 334 332 339 333 330 331
296 302 302 304 304 303 303 303 301 297 306 309 312 309 300 300 308 314 316 316 316 317 318 319 321 322 323 324 325 328 329 330 331 331 331 332 333 334 334 337 338 341 344 345 347 347 347 349 348 351 352 355 355 356 355 355 353 353 352 351 351 350 349 350 351 352 352 356 358 358 359 360 360 361 360 360 360 358 356 355 351 348 347 345 349 344 343 338 338 339 339 336 339 337 333 333 332
300 302 302 302 304 304 304 303 301 299 299 295 306 310 301 300 309 314 316 313 314 315 317 319 320 322 323 324 325 327 329 330 331 331 331 332 332 334 336 336 339 340 344 344 346 347 347 350 349 352 352 354 354 356 355 354 355 354 352 351 351 352 351 350 352 352 350 355 356 357 358 360 360 359 359 358 358 358 358 354 350 348 347 345 353 344 341 340 338 338 335 335 335 335 334 334 333
302 303 304 304 304 304 304 302 301 299 297 293 301 306 300 295 304 310 313 314 313 315 317 319 321 322 323 324 325 326 329 330 332 332 333 333 333 334 336 338 338 339 344 347 347 348 347 349 350 350 351 354 355 355 355 354 354 355 352 351 351 350 351 349 351 350 349 352 355 356 356 357 358 357 356 357 356 358 356 354 351 348 347 346 351 344 340 338 337 336 335 332 334 335 335 336 333
305 303 301 300 301 301 300 300 299 297 291 295 301 307 305 295 302 310 309 312 315 317 318 320 321 323 324 325 325 326 328 329 331 332 333 333 335 335 336 337 338 339 343 346 347 348 348 348 350 349 350 354 355 355 355 353 353 354 352 352 351 350 350 349 349 349 348 349 352 355 355 356 357 356 355 355 356 357 355 353 351 349 348 349 351 341 339 338 337 336 335 333 333 333 332 336 340
304 299 298 296 296 297 296 297 299 291 288 294 301 305 307 298 298 309 316 318 319 319 318 319 320 322 324 324 326 326 328 329 330 332 332 333 333 334 335 336 337 338 341 345 347 348 349 349 351 350 350 351 354 355 355 354 354 353 353 352 351 352 351 350 349 349 349 349 349 353 355 355 355 355 354 354 354 356 353 351 351 349 349 347 347 339 339 337 336 335 334 335 333 333 334 339 335
302 299 297 293 288 291 288 291 290 288 289 294 302 305 302 302 303 311 315 318 319 320 321 321 321 323 324 325 326 327 328 329 330 331 332 333 333 333 333 335 337 337 340 343 346 348 349 349 350 350 350 351 352 355 355 354 354 354 353 353 352 353 352 351 350 349 351 350 348 350 352 352 352 351 352 351 353 354 352 349 347 347 347 347 345 339 340 338 336 334 334 337 335 332 334 334 331
300 297 293 290 287 286 284 286 288 289 294 299 301 306 300 302 307 311 316 318 321 321 322 323 323 324 325 326 327 328 328 329 330 330 332 333 334 334 334 336 337 338 339 343 345 348 349 350 350 351 351 352 352 354 355 354 354 354 354 353 353 353 353 353 352 350 350 351 350 350 351 352 351 351 351 350 352 353 352 350 348 345 345 345 342 341 339 338 338 335 336 336 335 334 336 335 333
299 300 297 294 292 289 285 287 287 288 289 295 300 299 293 300 299 312 315 320 322 323 324 324 324 325 326 328 328 328 329 329 330 330 331 333 334 334 335 336 338 339 339 342 344 347 350 350 350 351 351 353 353 353 354 354 354 355 355 355 354 354 353 354 353 353 351 351 350 350 351 351 351 350 351 351 352 351 351 349 347 344 343 341 341 341 340 339 339 338 338 337 337 337 336 337 334
301 301 299 292 295 296 289 290 289 291 293 294 296 294 297 301 305 315 318 319 320 323 323 324 323 325 326 327 327 328 329 329 330 331 331 332 334 335 335 337 339 339 340 342 344 346 349 350 351 351 351 353 354 354 353 354 354 355 355 354 354 355 355 355 354 354 353 353 352 351 351 351 351 350 351 350 350 350 349 348 346 342 341 339 338 340 339 338 338 338 337 337 336 340 336 335 335
296 298 295 297 300 299 295 298 299 299 295 290 295 299 297 302 305 310 315 316 317 320 322 322 322 324 325 326 327 327 329 329 330 331 331 332 333 335 336 337 339 340 341 341 343 346 348 350 351 351 352 353 354 355 354 354 354 354 354 355 355 355 355 354 354 354 354 354 353 352 351 351 351 350 350 350 349 349 347 346 344 341 340 338 337 340 340 338 339 338 337 336 336 338 337 336 335
297 296 296 301 303 300 296 287 291 290 287 289 296 294 293 298 293 305 309 312 315 317 320 322 322 323 323 325 327 328 328 330 331 331 333 333 334 335 336 337 339 341 341 342 344 346 348 350 352 351 352 352 354 355 355 355 354 354 354 354 355 356 356 356 355 354 355 354 353 352 351 350 350 350 351 350 349 347 345 349 343 341 340 338 337 338 340 339 339 337 337 337 337 338 337 337 338
302 298 301 298 291 291 293 291 287 286 287 287 291 294 295 296 296 304 305 310 312 315 318 320 321 322 323 324 326 328 329 330 331 331 332 333 334 335 336 336 339 341 343 344 345 346 348 350 352 353 352 353 354 356 356 356 356 355 355 355 355 356 357 357 356 355 355 354 352 352 351 350 350 350 350 349 348 346 343 344 342 340 340 339 338 337 339 338 339 337 337 336 337 337 336 335 336
306 302 299 301 296 295 291 292 290 291 285 289 287 293 290 299 299 303 304 309 313 314 317 319 321 322 323 324 325 327 328 329 330 331 332 333 334 335 337 337 338 340 342 344 345 347 347 349 351 353 354 354 355 355 356 355 356 356 356 356 356 357 357 357 357 355 354 354 353 352 351 350 349 350 349 349 347 346 343 341 341 340 340 340 339 338 339 337 337 337 337 336 336 337 336 335 335
300 299 298 300 299 298 297 296 294 290 287 284 286 288 292 298 304 306 307 307 313 315 316 319 321 323 324 325 325 326 328 329 329 331 333 333 334 336 337 338 339 341 344 345 346 347 348 350 351 353 353 353 354 355 356 356 357 356 356 355 355 356 356 357 357 356 355 355 354 353 352 351 350 349 348 348 347 346 343 342 340 341 339 339 339 338 339 337 336 336 337 337 336 337 336 335 335
303 301 299 299 294 292 290 288 296 294 291 285 287 288 290 300 308 309 308 308 311 315 317 318 321 323 324 325 326 327 327 329 330 331 333 334 335 336 337 339 340 341 343 344 346 347 348 349 351 353 354 354 354 355 355 356 356 357 356 356 356 357 357 357 357 357 356 355 355 353 353 352 350 349 348 347 347 346 344 342 339 340 339 339 339 339 339 338 335 335 335 337 336 336 336 335 335
Wind_Speed
14 11 9 7 6 4 2 1 1 2 0 1 1 1 1 1 1 3 1 3 1 3 5 4 4 0 3 2 7 8 10 7 1 5 3 3 8 13 9 12 11 10 9 8 6 7 8 13 15 17 19 19 19 18 18 18 17 17 17 17 17 17 16 16 17 16 16 16 16 15 15 15 14 14 14 13 13 13 13 12 11 11 11 11 11 11 11 11 9 9 9 9 9 9 9 9 9
10 8 7 6 5 3 1 1 1 1 1 1 1 1 2 1 1 3 6 8 5 2 3 4 4 4 11 12 9 5 8 8 2 4 5 8 10 8 10 13 13 12 9 8 6 7 7 10 14 17 18 19 19 18 18 17 17 17 16 16 16 16 16 16 16 16 16 16 15 15 15 15 14 14 13 13 13 12 12 11 11 10 10 10 10 11 10 10 9 8 8 8 9 9 8 9 9
9 9 6 4 4 1 1 1 1 1 2 2 0 3 3 4 5 4 6 8 6 3 6 8 9 7 7 6 6 3 1 7 10 7 8 11 13 8 12 13 12 11 10 8 9 8 7 11 15 17 18 18 18 18 17 16 16 16 16 16 16 16 16 16 16 16 16 15 15 15 15 15 14 14 13 13 13 12 11 11 10 10 9 10 10 10 10 9 8 7 7 8 8 8 8 7 8
9 6 8 5 3 1 1 1 2 1 0 1 1 2 5 5 7 8 8 7 6 8 10 9 4 3 8 9 7 12 7 5 3 10 10 9 5 12 13 13 12 10 9 8 8 9 8 13 16 17 18 18 19 17 18 16 16 16 16 16 16 15 15 16 16 15 15 15 15 15 14 14 14 13 13 13 12 11 11 10 10 9 9 9 9 9 9 8 7 7 7 8 8 8 7 7 7
9 7 5 4 2 0 1 0 1 1 1 3 4 5 8 8 8 9 7 9 10 9 9 8 8 7 9 11 4 2 4 6 5 2 6 6 10 13 13 13 11 10 9 9 8 8 8 18 17 17 18 18 17 17 17 17 17 16 16 16 16 15 15 15 15 15 15 15 15 15 14 14 13 13 13 13 12 11 10 10 9 9 9 9 9 8 7 7 6 6 7 8 8 8 7 7 7
7 4 5 1 1 0 0 1 1 2 6 2 1 3 7 7 11 17 16 12 13 11 10 8 8 8 6 4 2 4 10 6 7 5 8 9 15 15 15 13 12 10 10 9 8 7 8 17 18 18 18 18 17 16 16 17 17 16 16 16 15 15 15 15 15 15 15 14 14 14 14 14 14 13 13 12 11 11 10 9 9 8 9 9 8 7 6 5 5 5 7 7 7 7 7 7 6
7 4 2 4 2 0 2 2 4 3 6 4 2 2 7 6 11 15 14 13 10 11 9 13 14 13 11 5 8 4 2 8 7 8 7 14 15 15 15 12 12 11 11 9 7 7 10 18 18 19 19 18 17 16 16 16 16 16 16 16 15 15 15 15 15 15 14 14 14 14 13 13 13 13 12 12 11 11 10 9 8 8 8 8 8 7 6 5 4 5 6 6 6 6 6 7 6
5 4 4 3 0 1 1 3 4 4 4 5 3 4 6 8 13 13 13 14 8 8 10 9 5 12 11 3 5 5 10 3 9 12 15 15 16 16 14 13 12 12 11 9 8 7 14 20 19 19 19 17 17 16 16 16 16 16 16 15 15 15 15 15 15 15 14 14 14 13 13 13 13 13 12 12 11 11 10 9 8 8 7 8 7 7 5 4 4 4 5 6 6 6 6 6 5
3 2 2 1 1 1 2 4 5 4 4 2 6 5 6 8 12 14 11 9 11 9 11 13 10 10 6 10 6 6 7 14 12 16 16 16 18 17 11 13 13 11 11 10 8 8 10 18 19 19 18 17 17 17 17 16 16 16 16 16 15 15 15 15 15 15 14 13 13 13 13 13 13 12 12 11 11 10 10 9 8 7 7 7 7 6 5 4 3 4 5 5 5 5 6 6 5
1 3 3 3 3 2 3 5 2 4 6 8 9 10 8 9 12 12 15 12 11 13 11 7 2 15 13 12 9 6 7 14 16 15 15 16 16 14 14 14 14 14 12 10 8 9 8 16 20 18 18 18 18 18 18 17 16 16 16 15 15 15 14 15 15 14 14 13 13 13 13 13 12 12 12 11 11 10 9 8 8 7 6 6 6 5 4 3 3 3 4 4 4 4 5 5 4
2 3 4 1 1 2 2 5 4 2 6 9 8 10 9 9 15 12 12 13 10 12 12 17 12 16 11 8 5 7 13 14 15 17 17 17 16 14 13 13 13 13 12 11 9 9 9 12 20 19 18 18 19 19 18 17 16 16 16 15 15 15 15 15 15 14 14 14 13 13 12 13 12 12 12 11 11 10 9 9 8 7 6 6 5 4 3 2 2 1 2 3 3 3 3 3 3
2 3 2 2 3 3 4 4 4 2 4 8 6 9 4 13 15 14 15 15 12 14 16 6 8 14 12 8 4 10 13 13 12 14 15 15 13 15 13 10 12 12 12 11 10 8 10 9 11 17 19 19 18 18 17 16 16 15 16 16 16 15 15 15 14 14 14 13 13 13 12 12 12 12 12 11 11 10 9 8 8 7 6 5 4 4 3 2 2 1 1 1 2 1 2 2 2
3 1 2 1 3 1 5 3 3 1 5 6 10 5 10 14 16 17 13 16 14 14 7 6 19 8 9 7 7 12 15 14 13 14 15 12 13 12 12 12 11 12 11 11 10 9 9 8 8 10 13 19 17 17 17 17 16 16 17 16 15 15 15 15 14 14 14 13 13 13 12 12 12 12 11 11 11 10 9 8 7 7 6 5 5 4 3 3 3 2 2 2 2 1 1 1 1
6 4 3 3 1 2 3 3 2 3 4 6 4 11 9 10 16 17 16 15 14 9 10 17 11 11 14 11 8 10 12 16 16 15 13 14 12 12 13 12 13 12 12 10 9 9 9 8 7 7 9 9 8 13 17 17 17 17 18 16 16 16 15 15 14 14 13 13 13 12 12 12 12 12 11 11 10 9 9 8 8 7 6 6 5 5 3 3 3 3 3 4 4 3 2 2 1
8 2 1 2 1 1 1 2 4 2 3 5 7 9 8 8 18 16 18 16 6 13 14 6 12 12 9 16 9 12 14 17 18 17 15 13 13 12 13 11 12 11 10 10 9 9 9 8 8 7 8 7 8 9 8 12 17 17 17 16 16 16 15 15 15 13 13 13 12 12 12 12 11 11 11 11 10 10 9 9 8 7 7 6 5 4 4 3 3 4 5 5 5 4 4 3 2
8 1 1 0 3 0 4 1 2 4 1 5 7 10 10 14 17 15 12 14 10 12 17 8 9 1 14 7 15 17 19 18 17 17 15 15 13 12 11 11 10 10 9 9 9 8 8 8 7 8 8 8 8 7 7 8 14 17 16 16 16 15 15 14 14 13 13 13 12 12 11 9 10 8 12 8 10 10 9 7 8 7 6 5 5 5 4 4 4 5 5 5 5 5 5 5 4
2 2 4 1 6 3 3 1 1 1 2 2 9 10 10 9 7 8 14 17 19 15 6 9 6 9 16 10 17 18 18 17 16 18 15 12 11 10 9 8 8 8 7 8 8 8 8 8 8 7 7 8 7 6 6 7 10 16 14 16 16 16 14 15 14 14 13 12 11 11 10 5 4 3 6 4 9 5 8 9 8 7 6 5 5 5 5 5 6 6 6 5 5 5 5 5 5
2 4 2 6 6 2 3 4 3 2 1 1 2 9 13 10 11 11 15 14 15 12 9 8 11 9 9 14 16 17 17 18 18 18 15 13 10 10 10 9 10 9 9 8 8 8 8 8 8 8 7 8 7 6 5 5 6 11 7 8 8 10 12 12 10 6 9 4 11 8 4 4 3 3 3 6 3 4 6 10 9 7 7 6 6 6 6 6 6 6 6 6 5 5 6 2 2
7 1 3 9 5 5 7 5 6 3 4 4 3 12 12 13 17 13 12 14 14 12 11 13 12 14 13 15 17 16 17 16 18 16 17 16 13 14 12 11 10 10 9 9 8 9 8 8 8 8 8 8 8 7 6 6 6 6 6 6 6 10 8 8 5 6 4 4 4 4 4 3 4 3 3 5 4 7 6 9 8 7 7 7 7 6 6 6 6 7 6 5 4 6 3 2 3
6 5 6 9 8 8 8 6 5 7 2 0 7 11 13 15 14 12 16 16 15 16 14 13 16 17 17 17 17 16 16 16 16 17 17 16 15 14 14 14 12 12 12 10 10 8 9 9 10 9 9 9 8 7 6 6 5 5 5 5 5 5 6 5 4 4 4 4 4 4 4 3 4 4 7 12 10 6 5 8 9 8 8 7 7 5 6 6 5 4 6 6 5 3 2 3 3
3 6 8 10 9 7 9 9 6 5 4 2 2 4 12 13 11 12 17 16 13 14 19 22 20 21 19 19 18 17 17 17 15 16 17 15 14 11 12 12 13 12 11 10 9 10 10 10 9 9 9 9 9 7 7 6 5 5 5 5 5 5 5 5 5 4 4 5 4 4 4 4 4 4 5 5 4 5 4 4 4 4 3 3 4 3 3 4 1 1 2 3 3 3 3 3 3
2 11 13 14 5 5 10 10 10 6 8 4 4 10 13 8 9 14 20 16 13 16 17 20 23 23 22 21 19 17 18 16 17 17 17 17 17 14 12 10 10 10 10 10 11 10 11 10 10 9 10 9 9 8 8 7 7 6 6 6 5 5 5 5 5 5 5 6 4 4 5 5 5 5 4 5 3 3 5 4 5 4 3 3 2 4 4 2 2 1 2 2 3 4 3 3 3
9 7 10 13 14 8 3 10 8 9 5 5 4 3 7 9 5 17 18 14 12 16 21 22 24 24 22 21 20 19 18 17 18 18 17 16 15 14 14 12 13 12 11 10 10 10 11 11 10 10 10 9 10 8 7 7 7 6 6 6 6 5 5 5 5 5 5 5 6 6 6 5 5 5 5 5 5 4 4 4 4 4 4 4 4 4 3 3 3 3 2 3 2 2 3 3 3
11 12 12 14 12 14 7 6 8 10 11 8 5 8 10 9 10 13 15 8 16 18 20 22 21 20 21 21 20 20 19 19 18 17 17 17 16 17 15 14 12 10 10 11 10 10 11 13 11 11 10 10 9 8 8 8 7 7 7 7 7 7 6 6 6 6 6 6 6 6 6 5 6 5 5 5 4 3 4 4 4 4 5 4 4 3 3 3 3 3 2 2 3 3 2 2 2
12 14 9 10 10 14 9 5 11 9 8 8 7 11 10 11 8 7 9 16 17 19 19 20 20 21 19 22 19 19 18 17 17 16 13 11 13 14 12 10 11 11 12 12 11 11 12 12 12 12 11 11 9 9 9 8 7 7 7 7 7 7 6 6 7 6 6 6 6 6 5 6 5 5 5 5 4 4 4 4 4 5 4 4 3 3 3 3 3 3 2 2 2 2 2 3 2
10 12 8 4 8 12 11 8 12 12 7 8 8 8 8 4 8 9 18 19 20 20 19 21 21 21 20 19 19 19 18 18 17 16 16 13 14 14 14 12 12 13 13 12 12 11 11 12 13 13 12 11 10 9 8 8 8 8 8 8 7 7 7 7 7 6 6 6 6 6 6 6 6 6 5 4 5 5 4 4 4 4 5 4 4 4 4 3 3 2 2 2 2 2 2 3 2
3 4 3 5 10 13 14 11 13 13 9 10 12 8 8 12 11 2 11 20 21 21 21 20 21 21 20 17 17 17 19 18 18 15 13 12 14 14 14 13 13 13 12 13 12 11 11 12 12 12 12 11 9 9 8 8 8 8 8 8 7 8 8 7 7 6 6 6 7 7 6 6 6 6 5 5 5 5 5 4 5 4 3 4 4 4 3 3 2 4 3 3 2 3 3 2 2
7 6 8 7 8 11 12 11 14 13 7 12 10 8 8 7 13 14 12 20 24 23 20 20 19 18 17 17 17 15 15 15 15 16 18 17 13 13 15 14 14 13 14 13 11 11 12 13 13 13 12 11 10 9 9 9 9 9 8 7 8 8 7 7 7 6 7 7 7 7 6 6 5 5 5 5 6 5 5 5 5 4 5 4 4 3 3 3 3 3 3 3 3 2 3 4 1
4 5 7 11 6 9 13 10 12 12 5 11 8 6 5 4 14 18 18 19 22 24 22 20 19 17 16 16 15 13 15 15 14 15 16 15 13 13 15 14 14 14 11 13 12 12 14 13 13 13 12 12 11 11 10 9 8 8 8 8 8 8 7 7 7 7 7 7 7 7 7 6 6 6 6 6 6 6 6 5 5 5 5 4 3 3 3 2 2 3 3 2 2 2 2 4 3
6 3 5 7 6 3 11 15 12 16 10 14 11 5 8 7 20 20 19 18 19 20 20 19 16 15 15 14 14 13 13 15 14 15 15 14 15 15 15 15 15 13 11 10 12 14 12 10 10 10 11 13 12 9 9 9 9 8 8 8 8 8 7 7 7 7 7 7 7 7 6 6 6 6 6 5 5 5 5 5 5 5 5 4 4 3 4 3 4 2 3 1 1 2 2 3 2
6 4 1 5 3 6 5 11 12 21 12 14 12 8 8 11 22 22 21 23 23 20 19 19 17 16 15 14 14 14 15 14 14 14 15 14 15 14 16 15 15 13 11 12 14 14 13 12 10 9 12 13 11 9 10 10 9 8 8 7 8 8 7 7 7 6 6 7 7 7 7 6 6 6 6 6 6 6 6 6 5 5 5 4 4 3 3 2 2 3 2 1 3 2 2 2 1
2 5 6 4 3 8 5 9 12 14 10 14 8 5 9 14 18 23 20 21 22 21 20 19 18 16 17 13 15 15 14 14 13 15 15 14 16 13 16 17 17 15 14 14 14 14 14 13 12 12 13 14 12 10 9 9 9 8 8 8 7 8 7 7 7 7 7 6 7 7 7 6 7 7 7 6 6 6 6 5 5 4 4 4 3 3 2 2 2 3 1 1 1 0 2 4 3
1 5 4 7 4 7 5 4 8 15 12 11 13 6 5 9 19 21 22 23 21 20 20 18 20 19 18 14 15 15 13 13 13 15 15 14 15 14 15 17 17 17 15 15 15 14 14 14 14 13 15 15 13 11 8 8 8 8 8 8 8 8 7 7 6 6 7 7 7 7 7 7 7 7 7 6 6 5 5 5 4 4 4 4 3 2 2 2 2 2 1 0 3 2 3 2 4
5 0 4 4 6 5 6 5 3 15 16 12 3 9 9 13 21 21 21 22 20 19 20 20 19 17 17 15 16 16 14 14 15 16 17 16 13 16 15 16 17 17 16 17 16 16 15 14 13 13 13 14 12 11 9 9 9 8 7 7 7 8 8 7 6 6 6 6 6 7 7 7 7 7 6 5 5 5 4 4 4 4 4 3 3 2 3 3 2 2 3 2 1 3 2 0 1
7 3 4 8 6 6 9 4 2 16 17 19 5 11 9 17 21 22 22 22 21 21 20 20 19 17 16 15 16 17 15 15 16 15 17 16 16 16 16 17 17 17 15 17 17 16 13 13 12 12 13 13 12 10 8 7 8 7 7 7 6 6 6 6 6 5 6 6 7 8 7 7 7 6 6 5 5 5 5 4 5 5 4 3 3 2 3 2 2 2 3 1 1 2 2 2 2
9 6 6 5 8 6 5 10 4 14 11 13 11 12 10 19 20 21 21 22 21 20 19 18 18 17 16 16 17 16 16 17 15 14 16 15 14 14 14 15 15 16 15 16 17 16 14 14 12 11 13 13 11 9 8 7 7 7 7 5 6 6 6 6 6 5 6 6 6 7 8 7 6 6 6 5 5 5 5 5 5 4 4 3 3 3 3 3 4 3 3 2 0 0 0 2 2
6 5 5 10 9 10 9 10 3 13 10 13 11 14 14 19 20 21 21 19 16 18 18 17 17 16 16 16 17 18 18 18 15 16 16 17 16 15 14 14 14 15 15 16 17 17 16 15 14 14 13 13 11 10 9 9 9 8 6 9 9 7 7 6 6 6 6 7 7 7 8 7 6 6 6 5 6 5 5 5 5 4 4 4 3 4 4 4 4 4 2 0 2 0 1 1 1
10 9 8 10 8 11 13 6 4 11 11 9 9 14 15 18 18 18 19 19 18 20 19 19 19 18 17 19 19 19 19 13 13 11 13 16 15 15 15 13 14 16 15 17 18 18 16 16 16 14 12 13 13 12 10 9 9 10 9 9 7 6 7 7 7 6 6 6 8 7 7 7 7 7 7 6 5 6 6 5 6 6 5 5 4 3 4 3 3 3 3 1 0 1 1 1 0
8 9 9 9 11 10 12 7 9 6 13 11 11 14 14 16 19 17 22 22 19 21 21 21 21 19 16 18 20 20 15 14 14 16 14 16 18 16 15 15 16 19 17 17 17 16 16 16 15 14 13 13 13 13 11 10 8 8 9 6 8 5 5 6 6 6 5 6 7 8 8 7 7 7 7 7 6 6 7 6 6 5 5 4 4 3 4 4 4 4 3 4 1 0 1 1 1
10 10 8 9 13 3 9 3 6 6 6 9 12 14 11 12 14 19 19 21 17 20 22 20 20 21 20 20 19 18 19 17 18 18 17 16 18 16 14 15 17 16 16 16 16 18 15 14 15 15 14 14 13 13 13 10 9 7 6 6 5 6 5 5 5 4 4 6 7 8 7 8 8 7 7 7 6 6 7 7 6 5 6 4 5 5 4 4 2 3 3 3 2 0 1 1 1
11 12 11 11 14 10 9 7 5 3 9 7 11 5 3 5 9 11 13 15 18 18 19 19 19 21 22 21 20 20 21 20 20 19 18 17 18 18 16 15 16 16 16 17 17 16 13 17 17 17 15 15 13 13 13 11 8 6 5 4 4 2 1 4 4 6 6 7 7 6 7 7 8 8 7 8 7 7 7 6 7 6 6 5 5 6 5 5 5 4 5 3 3 3 0 0 0
8 12 15 15 14 11 9 7 6 2 5 4 15 4 7 6 12 18 13 11 14 17 19 19 19 18 18 18 19 19 20 21 22 22 21 19 20 18 17 16 17 16 17 17 18 18 16 15 15 15 13 13 14 14 14 11 11 10 9 9 9 8 8 8 10 10 8 8 8 7 6 7 8 7 7 8 7 7 7 7 7 6 6 6 6 6 4 3 4 3 4 5 3 3 4 2 0
8 10 11 15 16 13 10 8 2 2 5 5 11 11 5 6 8 12 14 17 16 14 19 20 18 18 18 18 18 18 19 17 18 20 20 19 19 19 19 18 18 18 18 17 17 17 17 16 15 16 14 13 13 14 14 12 11 11 13 13 12 12 11 9 8 8 8 7 6 8 8 7 8 8 7 8 7 8 7 6 7 6 6 6 5 5 5 5 5 4 4 4 4 3 3 3 4
11 5 6 9 15 16 15 12 8 6 3 3 7 5 7 6 11 11 16 18 17 14 17 18 18 19 20 19 19 19 20 20 18 19 20 20 20 21 21 20 18 19 18 16 16 16 17 16 16 17 14 14 13 14 15 14 13 12 12 12 11 11 11 11 10 9 6 6 7 8 7 7 8 8 8 8 8 8 7 7 7 6 7 6 5 6 6 5 4 2 4 5 4 4 4 6 4
9 5 8 9 13 17 15 11 10 6 6 8 7 2 0 4 11 9 14 15 16 16 17 18 19 21 21 22 21 21 22 21 21 19 20 20 20 21 21 20 20 19 16 16 16 16 16 16 16 15 14 14 14 16 16 15 14 13 13 12 11 10 10 8 7 7 7 7 9 7 8 8 7 7 8 9 8 8 8 8 7 7 7 6 5 6 4 4 5 6 4 5 5 4 4 4 5
9 6 9 10 9 10 11 10 10 6 6 10 8 7 6 4 3 8 7 15 17 17 18 19 20 22 22 22 21 22 21 19 20 22 22 22 21 21 22 22 21 18 17 18 18 16 16 14 15 15 15 14 14 16 16 16 15 13 13 12 13 11 9 7 7 8 7 7 9 9 8 8 7 7 7 8 8 8 8 8 8 8 8 7 6 6 5 5 5 6 7 6 6 5 3 5 6
7 9 7 9 11 10 6 6 5 4 6 11 10 12 11 7 5 13 11 13 18 16 14 14 15 18 20 22 22 20 20 19 19 20 21 22 22 21 20 20 21 19 17 18 17 17 16 16 17 18 17 14 15 17 17 17 15 14 14 14 15 13 12 10 8 9 8 7 9 10 9 8 8 8 7 7 8 8 8 8 8 8 8 7 7 6 6 7 7 7 7 6 6 7 5 5 3
13 5 8 4 8 4 2 3 3 6 8 7 10 12 16 13 5 10 15 19 23 22 20 20 18 20 21 20 20 21 21 20 20 20 20 20 19 18 17 19 19 19 17 17 17 17 17 17 18 20 18 16 15 16 17 16 15 15 14 15 15 13 13 11 11 11 11 12 11 10 9 8 8 8 7 7 8 9 8 8 8 8 8 8 8 7 7 7 7 6 6 6 6 5 5 5 4
13 8 6 10 4 3 8 4 8 7 8 5 7 13 10 16 6 14 17 17 16 17 19 22 22 21 21 21 22 20 20 20 20 19 19 18 18 18 18 18 18 18 17 19 19 18 18 18 20 21 19 18 17 17 17 17 16 15 14 15 14 12 12 12 12 11 10 11 10 10 9 9 8 8 8 9 9 10 9 9 8 9 9 9 8 7 7 8 7 6 7 6 6 6 6 6 6
13 13 8 9 7 7 9 6 1 3 5 5 7 11 10 3 10 11 24 23 18 18 18 21 23 21 20 20 20 19 19 19 19 19 19 19 19 18 19 19 19 18 19 20 19 18 17 17 19 21 21 19 17 17 18 17 17 16 15 14 14 12 12 12 12 12 10 9 9 11 11 11 10 11 11 11 10 11 10 10 9 9 9 9 8 8 8 8 7 7 7 7 6 6 5 6 6
13 6 11 11 7 6 10 6 10 8 6 6 4 5 3 6 6 10 15 19 19 19 21 20 20 20 19 19 18 19 19 18 18 18 19 19 20 21 19 19 19 19 21 20 18 18 18 18 19 21 19 19 18 19 17 18 17 16 15 14 13 12 12 12 11 11 11 10 9 10 10 10 10 10 11 10 10 11 11 10 9 9 9 9 8 8 8 8 7 7 7 7 7 6 6 6 6
10 9 6 7 17 6 4 5 3 3 1 3 3 5 6 8 6 15 17 20 20 20 21 17 16 14 14 13 16 17 19 19 18 18 19 20 20 20 19 19 19 19 21 19 20 19 18 19 20 21 21 20 19 19 17 18 17 15 15 15 15 14 11 11 10 9 9 10 10 11 11 10 10 10 9 10 11 11 11 11 10 10 10 9 8 9 9 8 8 8 7 7 7 4 6 6 6
6 7 15 9 8 5 2 3 2 1 1 10 3 3 5 6 3 5 11 17 18 17 19 19 17 16 15 16 17 18 18 18 18 18 18 19 19 20 20 20 19 18 19 20 20 20 21 20 19 20 20 18 19 19 19 17 16 16 16 16 14 14 13 13 12 12 12 10 10 10 10 11 10 10 9 10 11 10 11 11 11 10 10 10 9 9 9 9 8 8 8 7 7 6 7 8 6
5 11 5 3 5 6 6 7 1 6 6 5 4 11 3 1 9 4 5 10 15 15 17 18 18 18 18 17 18 18 19 19 20 20 20 21 20 21 20 19 20 21 22 21 21 20 19 19 20 21 19 20 19 18 18 17 17 16 16 16 15 15 14 14 12 12 11 10 10 9 9 10 11 10 10 9 10 11 11 12 11 11 10 9 10 8 9 9 9 8 8 8 8 7 7 6 6
11 8 6 8 4 8 3 3 9 7 9 3 3 4 5 9 7 1 6 12 14 15 15 15 17 18 20 20 20 19 18 18 18 19 18 18 19 19 20 20 21 22 22 22 21 20 18 17 18 20 22 22 21 18 17 15 16 14 13 15 16 14 13 12 11 11 10 11 12 11 11 12 11 11 11 10 11 11 11 11 11 11 10 11 9 9 8 8 9 8 8 8 8 8 8 8 7
10 5 4 6 5 7 5 7 3 5 4 4 8 6 7 6 7 7 7 11 14 14 14 17 22 23 20 19 19 19 18 17 17 18 18 19 20 21 21 21 21 20 19 18 19 18 20 19 19 19 18 18 18 18 17 17 16 14 14 13 14 13 13 12 12 12 11 12 13 13 12 12 13 11 11 12 12 12 12 12 11 12 11 10 10 9 9 9 9 9 9 9 9 9 9 9 8
9 9 8 2 4 2 5 3 7 7 4 5 4 6 6 6 7 10 12 11 13 16 17 18 19 21 23 21 20 19 19 17 17 17 18 19 20 20 20 20 19 19 18 17 17 20 19 17 18 19 20 19 19 18 18 16 15 15 15 15 15 14 14 12 12 13 13 13 12 12 13 12 10 12 12 12 13 13 13 13 13 12 12 11 10 10 9 9 9 10 9 10 8 9 10 8 7
12 13 13 11 8 5 9 10 1 3 4 4 4 11 6 9 4 9 11 10 11 14 17 19 21 22 20 20 20 19 18 18 18 18 18 19 18 18 18 17 14 14 15 17 18 17 17 19 19 19 18 18 20 19 17 16 15 14 16 15 15 14 13 13 13 13 14 13 13 13 12 11 13 13 12 13 14 12 12 13 13 12 12 12 11 11 10 9 10 10 10 8 9 10 9 9 8
Wind_Direction
151 155 156 160 142 148 128 36 33 338 67 46 225 230 8 321 58 144 158 90 244 229 226 263 141 83 206 144 107 99 27 145 359 146 208 133 132 139 141 132 137 138 141 149 161 146 141 152 159 146 143 140 137 135 134 132 131 128 125 124 122 119 119 121 121 121 121 120 121 121 122 123 124 122 120 119 119 118 119 123 122 121 118 114 111 109 107 105 103 103 104 106 103 101 100 97 95
151 155 169 182 164 183 22 210 112 356 30 130 268 68 188 226 354 211 193 193 202 208 166 206 101 106 100 113 133 115 30 13 304 111 76 117 123 129 143 140 144 145 148 149 144 139 147 154 157 150 145 142 140 137 135 134 134 132 128 128 125 123 124 124 124 124 124 125 125 126 126 126 127 125 123 122 122 123 125 126 126 123 118 113 110 108 106 104 105 106 109 106 103 104 101 99 100
154 156 168 200 120 298 217 94 69 32 33 42 268 207 120 168 219 220 201 203 214 174 155 150 158 139 127 106 59 30 37 50 92 102 104 133 128 154 147 144 144 143 144 147 146 152 157 162 158 150 146 144 142 140 139 138 138 136 133 131 129 129 128 127 127 128 129 129 129 128 129 129 128 128 127 127 127 128 129 131 129 125 122 116 112 108 106 106 107 107 101 97 99 99 99 97 94
152 170 158 176 119 296 257 21 90 147 105 225 283 199 175 202 218 200 202 193 212 175 142 133 105 0 106 74 95 81 83 109 82 127 130 160 153 145 146 144 142 140 141 146 150 157 162 158 155 152 150 148 147 145 143 142 142 141 137 134 133 133 132 131 131 131 132 132 131 131 131 131 132 132 131 129 129 130 132 131 130 130 125 119 113 108 107 110 112 109 103 99 96 96 96 91 92
158 178 186 164 113 206 107 154 170 99 262 198 166 177 195 197 193 182 183 210 188 144 118 107 94 76 89 107 135 110 141 97 107 44 113 114 129 141 143 141 139 142 146 148 151 155 159 157 153 152 153 151 150 147 144 145 145 143 140 137 137 138 137 135 134 134 134 134 134 134 135 135 134 134 135 134 133 134 134 133 133 132 128 121 114 108 109 112 113 108 102 98 98 98 99 96 90
149 165 210 317 154 258 45 31 315 247 231 151 193 220 193 206 156 153 163 155 110 116 120 108 108 128 75 31 50 93 138 141 148 119 126 137 144 143 142 141 141 144 147 149 151 152 157 157 155 154 155 152 148 146 146 147 146 145 145 143 142 143 142 138 136 137 137 136 136 137 138 138 139 138 139 136 137 135 134 136 137 136 131 123 116 113 113 111 114 110 103 101 100 104 101 100 97
150 150 185 249 279 241 168 189 212 222 272 195 224 210 182 179 144 123 112 106 98 91 97 105 112 104 84 94 83 137 146 117 137 140 138 141 143 143 142 143 142 144 147 148 149 152 159 158 157 156 156 153 149 148 148 149 148 148 148 148 148 147 143 140 140 141 142 139 138 139 141 141 139 141 141 138 137 137 139 140 142 138 132 128 124 125 125 125 115 109 102 98 100 100 101 102 99
165 169 175 170 219 54 302 271 255 176 260 176 221 164 159 160 140 115 118 121 136 119 130 129 88 95 86 77 103 111 114 130 110 121 128 141 144 144 145 144 144 147 147 146 150 156 162 158 159 158 157 152 151 152 152 153 153 153 152 151 151 149 146 144 144 145 145 141 141 142 144 144 144 144 142 142 141 142 143 145 145 142 139 132 131 134 136 134 129 110 100 98 98 99 96 93 94
202 275 155 47 303 231 279 221 253 182 262 212 175 167 154 146 130 127 126 122 121 126 120 121 149 85 113 97 78 100 82 104 114 126 137 141 147 148 147 149 148 147 147 149 151 154 162 160 159 159 156 154 156 157 157 158 159 157 156 154 152 152 149 148 149 149 146 145 144 146 147 148 147 145 146 145 144 144 146 148 150 149 144 142 142 142 148 148 140 126 108 101 98 94 90 90 86
226 209 177 201 154 214 229 276 250 226 200 212 171 169 167 175 136 126 120 119 122 120 125 127 157 104 121 108 110 103 118 116 127 136 143 146 146 146 147 150 150 147 147 148 151 155 157 163 159 158 157 158 159 160 162 162 163 161 158 156 155 155 153 153 153 152 150 148 148 150 150 150 150 150 150 149 148 149 150 152 155 155 155 152 153 154 158 166 163 136 116 110 102 94 87 83 87
195 190 259 354 5 293 262 288 245 246 178 178 177 177 161 134 121 121 118 116 123 115 99 105 94 117 120 99 74 101 121 132 140 144 150 151 149 146 146 148 147 147 147 148 150 157 154 166 159 159 162 162 161 162 164 163 162 162 160 158 158 159 158 157 156 155 153 152 154 154 153 154 154 154 155 154 153 154 157 159 161 163 162 163 158 161 174 191 191 171 134 117 117 109 100 93 94
241 201 175 168 233 216 260 272 295 250 168 161 167 173 152 127 111 113 123 118 121 123 133 149 130 124 101 113 127 132 136 145 147 145 152 151 147 148 144 138 142 144 146 146 149 157 159 162 159 162 163 163 162 164 165 163 163 165 164 162 162 163 161 160 159 158 158 157 158 158 158 157 159 160 160 159 160 160 163 164 167 169 172 171 175 175 194 225 252 265 302 61 80 82 84 91 107
233 198 169 191 234 159 255 259 323 133 174 185 169 158 132 125 131 133 129 126 136 139 159 133 134 143 116 131 142 142 152 158 151 154 149 147 144 146 141 141 140 141 145 147 150 157 159 156 158 163 166 165 165 166 166 165 166 168 166 165 165 164 164 163 162 162 162 162 162 162 162 162 164 165 165 164 164 166 167 170 173 178 180 184 187 196 203 224 254 278 301 336 359 15 21 46 44
212 196 139 246 296 256 280 279 139 78 201 178 158 142 145 136 139 135 131 134 151 139 122 136 132 119 106 119 154 160 160 156 157 151 148 149 147 141 138 137 139 143 147 151 155 155 155 160 158 159 164 163 164 168 169 170 168 168 168 167 166 167 166 165 166 165 165 167 167 166 167 168 167 169 170 169 171 171 173 177 182 183 186 196 200 204 211 222 252 284 303 315 318 320 328 309 325
228 193 188 195 271 294 239 34 313 49 229 163 159 147 143 126 131 142 142 137 130 120 127 133 140 117 178 157 164 172 158 157 154 152 154 145 123 122 126 135 140 144 148 154 154 156 158 159 160 159 161 163 165 167 175 171 170 169 169 168 168 168 169 169 169 169 169 171 171 171 172 172 173 174 175 175 175 177 180 188 190 191 196 206 216 218 227 249 271 297 303 307 312 310 310 307 295
212 224 195 269 279 20 286 340 251 52 263 164 176 135 123 125 142 147 152 131 126 140 151 138 216 48 159 182 156 155 151 154 152 152 143 130 124 124 130 136 140 146 151 154 158 162 160 157 158 161 164 166 167 167 166 166 170 169 169 170 171 171 172 172 173 173 174 175 175 176 177 177 177 181 179 179 182 184 189 195 199 203 207 216 226 232 254 269 282 293 294 298 302 304 311 311 305
204 242 302 328 290 17 274 268 84 359 248 211 158 141 132 137 118 102 122 125 137 160 173 144 185 130 156 148 145 145 148 150 150 145 136 133 135 139 137 140 142 149 156 161 163 163 162 161 160 157 163 163 164 163 163 167 173 171 172 172 175 175 175 176 176 177 179 180 179 179 181 175 183 183 184 185 191 190 196 201 210 216 221 222 231 247 262 275 283 286 292 296 296 300 302 296 294
158 229 188 275 243 261 232 230 188 170 145 310 168 147 132 123 115 121 120 131 134 149 112 106 94 94 123 131 133 143 148 152 151 146 143 142 147 145 147 152 155 161 162 164 171 166 164 166 165 162 162 166 166 165 166 170 175 170 170 175 176 178 179 179 180 178 181 184 182 182 173 177 175 184 187 189 209 199 204 207 215 222 222 227 237 251 264 276 284 285 287 290 298 299 291 286 290
190 202 163 237 211 235 199 194 208 135 220 176 174 141 136 133 130 146 132 143 141 125 119 120 113 114 123 132 140 146 151 152 152 149 149 150 152 154 155 157 163 159 166 169 172 174 171 165 168 168 168 168 168 169 170 173 176 163 171 175 178 180 186 180 176 180 172 181 174 174 175 184 176 190 189 199 204 214 213 218 219 227 226 229 239 248 262 276 290 296 289 284 283 275 278 281 270
198 173 220 236 219 230 233 217 216 194 223 73 164 148 137 148 140 152 143 154 144 140 139 131 132 138 142 143 147 150 154 154 155 152 154 155 157 157 158 162 163 169 168 173 171 174 171 172 173 172 171 172 169 173 171 174 173 165 173 175 180 178 188 174 173 170 170 176 178 177 183 188 191 192 210 206 208 215 226 225 225 225 235 229 234 241 259 271 287 276 275 276 264 279 274 262 252
183 194 220 234 216 232 244 239 216 211 169 179 141 167 143 167 148 152 150 147 161 154 156 149 152 148 149 151 153 157 159 161 159 157 156 158 160 161 163 166 167 167 169 165 170 175 176 175 172 174 173 173 172 173 174 177 170 170 177 177 178 180 180 166 173 168 177 185 183 184 188 197 197 194 211 212 218 202 222 224 224 223 240 245 257 242 236 255 292 304 319 297 264 248 254 259 240
237 213 226 237 239 207 239 223 224 176 200 168 144 164 165 162 156 149 157 162 171 169 162 152 149 150 150 155 158 160 164 164 161 161 162 164 164 162 162 160 161 163 164 170 176 173 176 178 175 173 174 177 177 177 176 176 169 176 180 180 176 181 173 172 174 180 184 193 189 191 196 201 202 196 208 221 220 206 210 219 214 212 228 235 214 209 208 234 265 249 273 268 249 244 247 245 241
242 257 240 233 229 227 217 219 194 176 181 184 130 200 143 166 164 159 168 171 171 160 154 152 153 155 153 151 156 165 166 165 165 166 164 166 165 166 166 166 166 168 171 175 170 173 174 178 178 174 177 177 180 177 172 176 178 181 180 180 175 185 181 178 186 191 196 191 194 195 195 201 201 197 205 212 221 201 209 210 205 204 216 210 208 194 217 230 232 245 254 254 255 254 256 255 259
220 241 239 239 222 232 212 185 176 180 177 175 174 156 169 166 159 167 173 148 148 147 150 152 151 147 149 154 166 165 165 167 169 170 168 169 169 170 169 168 168 162 168 169 171 172 176 180 179 177 179 178 177 176 174 180 180 180 183 184 186 188 184 192 192 198 197 196 196 200 198 195 197 201 205 206 211 188 213 209 198 200 209 207 205 194 215 240 243 251 247 260 269 275 278 283 279
226 238 237 246 219 230 216 180 177 185 197 168 161 158 178 187 157 167 130 136 136 142 144 145 148 150 158 158 161 159 163 168 168 169 171 170 171 169 169 167 166 166 171 173 171 173 180 179 177 180 180 180 177 175 177 181 182 183 184 188 188 191 190 198 197 196 199 202 201 200 195 194 203 205 202 206 179 200 210 200 188 194 199 207 199 224 210 221 247 249 247 251 250 271 291 288 286
230 247 256 232 221 226 226 193 178 193 187 176 150 190 186 152 114 141 148 140 140 140 144 148 150 154 163 164 158 162 165 169 168 169 174 171 173 172 174 174 169 174 178 172 171 178 178 177 179 182 181 181 179 176 181 181 184 186 188 193 189 191 198 198 195 199 202 195 204 201 200 191 199 202 205 189 175 198 202 196 190 198 200 204 201 211 223 214 222 227 230 242 264 278 288 276 294
297 282 253 249 235 216 227 200 189 197 191 168 171 190 139 129 110 23 140 138 137 142 148 152 154 160 166 165 160 165 167 170 171 169 171 174 177 176 177 175 177 178 173 177 176 176 178 177 182 182 182 182 180 183 180 185 184 190 192 193 190 197 197 193 197 200 198 199 203 200 200 194 195 198 191 182 185 184 189 188 196 195 208 214 205 218 195 203 208 201 227 245 248 264 276 296 322
281 274 294 272 247 219 226 221 187 189 198 183 164 170 145 135 123 149 159 145 145 146 151 156 158 160 166 166 161 166 172 173 171 173 178 176 181 178 178 177 179 175 177 180 178 175 177 181 180 182 182 182 184 187 183 184 187 193 193 191 196 200 191 195 196 197 200 200 198 198 197 195 188 195 180 185 182 182 183 188 191 185 208 221 204 182 175 186 193 231 238 239 244 233 290 296 272
273 262 279 278 261 222 222 222 173 181 188 186 152 107 148 142 138 148 154 152 150 149 154 158 161 163 166 168 161 168 175 175 178 181 183 181 180 180 180 179 175 176 181 179 175 175 181 180 180 183 182 184 186 190 186 187 188 191 191 194 197 196 195 192 195 197 198 199 199 196 197 192 189 187 189 184 183 179 177 183 186 191 200 201 196 182 178 212 238 249 266 298 333 354 329 298 314
287 268 235 277 311 268 223 220 168 180 192 178 138 153 223 143 146 150 151 151 149 148 154 160 161 164 167 168 167 171 177 179 187 182 181 180 179 181 181 177 177 177 175 178 176 181 180 180 180 181 184 187 191 191 184 186 189 190 191 193 195 194 196 194 196 196 196 196 198 197 190 189 187 187 175 182 176 173 178 183 186 193 192 187 182 173 188 201 226 250 266 312 290 267 271 285 348
288 293 323 243 290 264 235 210 180 178 181 175 152 154 229 153 154 153 156 153 155 158 160 163 163 165 169 169 170 176 183 186 188 183 183 178 179 180 179 176 177 177 174 177 182 182 178 180 179 183 186 190 192 192 184 186 187 187 189 191 193 193 195 196 199 197 194 197 195 199 181 184 180 181 174 171 179 176 179 184 184 185 177 176 178 193 190 208 224 255 237 307 320 326 314 309 1
295 339 291 312 202 273 265 227 175 165 181 172 122 133 193 160 155 157 157 158 158 159 163 165 166 167 170 170 172 178 184 188 189 188 186 180 179 178 177 178 179 178 178 179 180 179 183 181 181 184 184 188 193 192 187 186 187 186 187 190 195 197 195 200 199 195 195 193 192 190 181 177 174 177 176 173 176 184 177 179 188 177 177 172 182 192 183 200 241 261 280 214 205 267 50 356 359
262 181 269 270 280 267 316 243 188 163 168 184 166 182 141 150 160 162 162 160 163 161 164 167 170 170 170 173 175 180 181 189 193 191 189 182 181 177 178 178 180 179 177 179 178 180 184 182 182 181 183 187 191 191 184 187 187 188 187 188 193 198 199 203 192 187 189 186 187 182 182 177 172 178 177 176 172 177 176 174 181 179 181 181 170 187 181 207 216 224 312 257 188 108 73 354 358
282 104 219 234 241 274 259 289 188 165 154 188 187 142 188 152 166 164 165 162 164 163 166 169 172 172 173 173 176 180 184 186 194 193 191 186 182 175 177 179 178 179 180 178 178 180 183 182 182 181 183 185 188 191 184 183 188 187 189 189 183 191 201 202 183 172 178 179 174 177 180 181 177 181 176 168 166 169 170 169 170 180 186 170 149 178 216 224 221 200 219 264 129 96 91 51 302
228 232 263 279 267 232 249 257 245 166 173 172 176 156 185 152 167 165 168 168 166 169 169 171 172 174 172 174 178 181 185 188 196 196 191 188 183 177 177 179 177 179 180 179 177 179 179 181 181 180 180 184 187 188 187 183 179 181 187 186 185 189 198 199 187 166 177 172 178 179 181 180 181 179 174 172 168 156 156 165 172 188 187 170 155 171 247 230 214 140 180 202 70 139 155 205 220
223 219 220 245 260 274 227 247 222 168 177 169 165 168 171 163 166 169 169 171 171 171 169 170 172 174 173 176 179 182 188 193 194 193 192 188 183 180 177 178 177 178 177 177 177 178 178 179 180 179 181 182 182 182 182 185 179 178 182 187 190 197 198 193 203 179 171 178 187 180 182 182 180 175 174 174 165 148 158 172 181 181 190 166 156 176 219 170 158 164 189 123 72 332 73 225 211
247 245 232 250 255 269 264 263 216 175 172 180 178 165 165 169 166 169 171 170 168 167 170 172 175 175 177 179 180 184 188 194 188 188 189 189 184 181 177 176 177 178 175 178 178 180 179 179 177 182 180 180 180 180 182 183 185 185 187 190 192 191 191 195 195 198 169 183 186 185 183 182 178 175 173 166 168 159 160 169 175 189 189 180 171 194 182 185 181 158 172 152 133 105 281 267 240
236 246 248 257 246 256 255 270 244 185 174 199 179 164 170 172 173 166 167 167 173 174 174 176 176 178 178 180 183 184 192 190 178 181 186 187 185 180 177 177 174 178 183 179 181 182 179 178 180 179 178 182 184 183 182 186 189 190 186 189 179 180 187 192 197 206 184 180 183 186 185 184 178 176 174 170 163 159 160 173 181 190 187 186 190 194 183 196 164 164 125 85 317 170 222 248 149
241 239 246 259 259 249 281 271 281 223 183 185 174 165 179 173 178 172 167 176 178 177 176 177 176 180 181 184 184 186 182 183 185 186 181 186 187 180 178 178 180 182 181 184 183 180 180 181 182 178 180 182 185 184 182 186 188 187 186 180 177 177 200 195 191 192 181 170 186 187 185 184 177 177 174 172 167 167 170 173 190 190 185 181 169 193 192 201 171 160 157 163 253 347 293 235 236
229 240 239 233 248 230 271 246 238 221 221 173 179 172 189 175 179 181 175 175 178 179 179 178 177 179 181 185 185 182 183 184 188 188 185 184 187 184 179 181 182 181 180 182 182 184 184 183 182 181 181 181 183 186 185 183 182 180 183 172 176 173 181 193 192 184 162 165 183 190 190 180 179 177 175 174 171 169 172 180 187 183 188 175 166 177 198 187 153 180 178 177 131 24 1 5 21
234 229 234 238 250 234 219 270 268 243 245 188 162 139 174 178 175 191 193 175 173 180 180 181 183 183 183 184 185 181 182 185 189 190 187 183 186 188 184 184 180 181 182 183 184 184 187 186 182 180 179 181 182 183 183 176 170 161 158 147 157 173 147 178 182 210 180 179 178 183 191 183 179 176 175 175 170 173 177 176 182 186 178 177 172 174 185 186 189 191 179 158 161 154 159 221 322
241 238 230 235 246 247 251 256 282 297 259 197 156 143 214 232 195 184 184 181 175 180 179 184 185 188 184 183 187 189 188 185 185 188 188 185 186 187 187 181 181 185 185 185 185 186 185 184 179 180 178 179 181 181 178 174 177 173 168 172 185 194 198 192 198 200 190 185 185 180 177 184 181 176 175 174 172 171 180 177 179 176 178 180 180 176 186 177 193 189 197 166 167 189 150 124 77
215 235 228 240 246 250 252 256 305 234 211 247 181 166 235 216 213 192 179 184 182 180 183 185 185 187 187 187 187 188 189 191 192 190 189 185 185 185 186 185 184 186 190 185 185 186 184 181 180 179 179 181 178 178 176 176 177 182 185 188 192 195 197 208 201 199 193 184 166 176 179 185 184 176 178 176 174 179 179 177 177 178 177 183 179 167 180 191 198 193 178 152 169 152 126 131 157
234 209 203 238 253 251 247 249 237 227 255 300 247 205 154 189 226 207 184 181 183 181 188 185 187 188 189 190 188 188 190 188 189 193 192 189 185 185 187 189 186 189 187 183 185 184 182 182 180 181 181 179 179 176 178 179 180 183 187 191 193 196 199 201 196 198 182 160 169 175 175 185 186 183 176 179 179 179 178 179 174 173 176 185 172 181 188 193 183 171 171 163 153 153 150 151 187
235 211 196 218 234 248 250 243 241 224 216 273 244 183 24 222 211 204 188 181 191 191 189 190 187 190 192 192 190 189 189 188 187 189 192 192 189 189 188 189 191 187 180 182 185 184 185 182 180 179 179 178 178 177 179 183 183 183 186 188 194 202 200 202 196 188 176 170 169 176 179 183 183 186 181 178 182 182 181 180 175 175 177 182 181 183 192 166 172 157 160 142 154 163 157 159 146
235 213 212 229 237 245 247 242 235 231 179 236 217 182 221 268 252 193 215 190 192 200 199 193 189 190 193 193 192 189 189 190 190 190 191 192 191 191 190 190 188 185 183 184 184 182 182 179 178 178 179 178 178 180 182 184 186 183 185 189 194 196 195 189 183 186 183 174 176 178 182 179 182 182 187 186 183 184 181 178 180 182 184 182 182 183 174 173 176 169 171 164 166 164 177 150 167
212 187 216 234 239 240 255 233 218 239 221 228 214 191 195 245 223 190 185 204 193 197 203 199 192 192 193 194 191 189 189 190 191 193 193 193 193 191 189 188 190 187 184 183 182 182 180 179 181 182 183 179 179 181 182 186 187 187 189 190 193 194 193 183 179 189 181 176 179 182 182 183 181 184 183 191 189 184 181 179 182 187 186 184 184 171 177 177 182 176 175 168 166 165 172 177 170
213 197 201 228 278 297 305 289 145 211 243 244 211 200 186 224 247 219 207 196 193 188 191 196 195 196 194 193 193 190 189 190 190 190 194 194 193 193 188 190 189 187 183 183 184 182 181 182 182 184 185 182 180 182 184 187 188 191 193 191 193 194 189 188 187 187 185 183 182 182 183 175 184 184 184 183 189 186 183 183 183 183 187 186 189 175 177 178 180 179 171 173 177 173 165 161 165
208 201 160 190 224 210 256 237 241 215 217 244 206 192 212 217 201 191 215 222 213 196 189 193 197 198 195 192 191 190 189 188 188 190 191 190 191 191 191 192 189 187 185 185 185 183 183 183 183 184 187 185 182 180 185 187 190 193 193 194 196 193 192 193 193 191 184 183 182 180 177 183 180 181 189 185 190 187 185 186 179 180 188 190 188 172 180 179 178 180 179 178 173 171 175 168 170
199 198 174 176 196 205 231 238 288 279 270 245 197 194 216 201 236 201 196 208 206 204 204 199 199 193 191 194 192 188 188 187 189 190 190 189 191 191 190 190 190 190 188 186 185 183 183 185 185 186 188 186 184 183 185 187 193 195 195 195 196 194 195 195 195 194 188 184 181 183 183 183 183 187 186 189 186 186 188 190 185 183 187 188 185 179 178 183 180 179 178 179 183 184 172 172 181
207 183 170 198 192 191 211 201 217 218 209 252 208 147 234 158 246 188 201 205 205 205 205 205 201 194 189 190 188 187 187 189 189 189 190 190 191 190 190 190 191 191 189 187 185 186 183 185 186 188 186 187 186 187 187 189 193 195 196 197 196 196 197 197 198 195 190 187 183 183 185 183 183 187 188 187 181 185 187 188 186 185 189 186 180 179 180 182 185 180 179 184 184 177 177 173 186
198 189 127 154 216 132 191 202 151 209 261 266 235 202 182 190 220 197 199 196 199 203 207 203 200 195 190 183 186 190 191 191 190 190 191 191 191 191 191 191 192 192 190 187 186 185 186 187 187 188 186 186 187 188 189 190 193 194 195 195 197 196 198 197 198 196 195 193 187 186 185 186 187 183 187 179 184 181 183 187 186 189 187 184 178 178 179 181 185 182 184 183 184 175 176 181 191
211 157 208 207 96 185 226 302 271 159 184 246 199 291 295 298 321 258 212 197 198 196 202 200 196 190 188 192 192 191 191 191 190 191 191 191 192 193 193 192 191 191 189 190 188 187 187 185 186 189 189 186 188 189 189 191 192 193 197 197 195 196 196 196 196 195 194 194 190 190 186 187 185 183 182 182 179 183 182 184 187 187 187 186 180 180 179 182 183 185 185 185 187 184 180 192 191
157 203 212 135 130 131 176 212 271 221 205 258 220 232 279 231 258 247 201 210 203 196 196 196 190 191 191 196 196 193 191 191 191 190 190 190 191 193 195 193 191 190 191 190 189 188 187 185 186 186 186 188 190 189 191 191 191 194 196 198 198 197 196 197 196 194 192 190 192 190 184 182 187 184 182 181 180 182 184 185 185 188 190 187 187 180 181 183 182 188 187 188 191 182 188 196 196
192 196 181 178 202 200 249 123 218 211 223 254 265 233 224 197 233 274 189 200 206 196 195 190 190 194 198 199 198 198 192 188 191 192 191 192 193 194 194 194 194 193 190 189 188 185 185 188 187 186 187 188 187 189 191 192 191 192 194 197 197 196 196 197 196 192 189 193 193 190 187 185 182 183 183 180 182 184 184 186 185 187 189 191 188 184 180 180 183 187 191 192 193 187 189 195 202
205 129 210 179 133 198 161 208 146 139 238 191 268 204 240 209 203 202 222 209 201 192 189 193 195 198 200 200 198 198 196 193 192 193 193 193 195 195 194 194 193 191 190 190 185 185 187 187 185 189 190 188 187 189 189 191 192 192 193 194 197 196 195 195 194 190 191 196 197 193 188 185 187 182 186 182 183 186 185 184 187 187 189 190 187 188 181 180 183 192 191 194 196 189 194 196 200
207 209 192 221 214 222 163 211 174 186 179 187 190 240 255 245 204 192 220 198 202 193 193 198 201 202 202 198 197 198 197 194 192 194 195 196 197 196 196 195 192 189 187 183 183 188 188 184 187 187 187 188 190 190 189 192 189 192 190 192 194 194 195 195 195 194 195 197 197 195 193 190 181 189 183 186 187 188 187 187 187 189 189 189 188 188 187 181 185 193 197 197 192 194 197 200 194
203 198 210 192 150 157 183 244 4 154 164 213 181 249 274 263 189 189 206 218 196 206 199 200 203 203 200 200 200 197 197 197 195 195 195 198 196 194 195 195 189 180 180 184 188 187 184 188 189 187 187 189 190 190 191 189 189 189 191 191 193 192 194 194 196 196 198 198 198 197 192 186 192 191 186 187 189 188 189 190 190 192 192 191 190 189 188 185 189 194 199 196 195 194 197 197 195